OE-2055 Weather Reports


time (UTC)temp
C
wind
direction
speed
KPH
gust
KPH
rain 1hr
cm
rain 24hr
cm
rain mn
cm
humidity
%
barometer
mb
20260903084111 18 235 3.2 9.7 0.00 0.00 0.00 62
20260903081112 17 185 4.8 9.7 0.00 0.00 0.00 66
20260903074112 17 242 3.2 9.7 0.00 0.00 0.00 67
20260903071112 16 207 6.4 9.7 0.00 0.00 0.00 72
20260903064111 16 194 4.8 8.0 0.00 0.00 0.00 69
20260903061112 16 180 4.8 8.0 0.00 0.00 0.00 71
20260903054111 15 176 4.8 9.7 0.00 0.00 0.00 72
20260903051112 15 181 4.8 8.0 0.00 0.00 0.00 73
20260903044111 15 189 4.8 9.7 0.00 0.00 0.00 72
20260903041111 15 185 6.4 9.7 0.00 0.00 0.00 71
20260903031112 17 213 4.8 9.7 0.00 0.00 0.00 61
20260903021111 18 209 3.2 9.7 0.00 0.00 0.00 55
20260903014111 17 331 1.6 3.2 0.00 0.00 0.00 56
20260903011112 17 232 3.2 8.0 0.00 0.00 0.00 56
20260903004112 17 7 1.6 4.8 0.00 0.00 0.00 57
20260903001511 17 346 3.2 6.4 0.00 0.00 0.00 58
20260902234112 17 338 4.8 9.7 0.00 0.00 0.00 60
20260902224112 17 308 3.2 12.9 0.00 0.00 0.00 65
20260902221112 17 272 3.2 9.7 0.00 0.00 0.00 64
20260902214112 17 117 3.2 9.7 0.00 0.00 0.00 63
20260902211112 17 40 4.8 6.4 0.00 0.00 0.00 64
20260902204113 17 58 3.2 4.8 0.00 0.00 0.00 64
20260902201112 17 77 1.6 3.2 0.00 0.00 0.00 64
20260902194112 18 78 1.6 3.2 0.00 0.00 0.00 64
20260902191112 18 181 3.2 4.8 0.00 0.00 0.00 64
20260902184112 18 223 3.2 6.4 0.00 0.00 0.00 64
20260902181112 18 340 4.8 16.1 0.00 0.00 0.00 63
20260902174112 18 349 4.8 14.5 0.00 0.00 0.00 65
20260902171112 19 352 3.2 11.3 0.00 0.00 0.00 63
20260902164112 20 311 4.8 11.3 0.00 0.00 0.00 61
20260902161112 21 303 6.4 14.5 0.00 0.00 0.00 60
20260902154112 22 275 4.8 19.3 0.00 0.00 0.00 61
20260902151112 22 246 6.4 20.9 0.00 0.00 0.00 60
20260902144112 22 255 6.4 17.7 0.00 0.00 0.00 59
20260902141112 21 309 4.8 14.5 0.00 0.00 0.00 61
20260902134110 21 288 4.8 14.5 0.00 0.00 0.00 63
20260902131112 21 243 4.8 14.5 0.00 0.00 0.00 64
20260902124111 21 262 4.8 14.5 0.00 0.00 0.00 64
20260902121112 21 234 6.4 17.7 0.00 0.00 0.00 64
20260902114112 21 244 6.4 19.3 0.00 0.00 0.00 62
20260902111112 20 239 6.4 12.9 0.00 0.00 0.00 61
20260902104112 20 267 6.4 11.3 0.00 0.00 0.00 63
20260902101112 19 244 6.4 12.9 0.00 0.00 0.00 64
20260902094112 18 253 4.8 12.9 0.00 0.00 0.00 65
20260902091111 18 245 6.4 11.3 0.00 0.00 0.00 68